Flag for Greenland

Past Weather in Thule Air Base, Greenland — Yesterday and Last 2 Weeks

Now
30 °F

Sunny.


Feels Like: 21 °F
Forecast: 24 / 18 °F
Wind: 10 mph from Northwest

Location: Thule A. B.
Current Time: Sep 25, 2020 at 12:34:31 pm
Latest Report: Sep 25, 2020 at 11:56 am
Visibility: N/A
Pressure29.51 "Hg
Humidity: 51%
Dew Point: 14 °F
Location of Thule Air BaseLocation

Past Weather in Thule Air Base — Graph

°F

Thule Air Base Temperature Yesterday

Maximum temperature yesterday: 28 °F (at 5:56 am)
Minimum temperature yesterday: 18 °F (at 8:56 pm)
Average temperature yesterday: 26 °F

High & Low Weather Summary for the Past Weeks

 TemperatureHumidityPressure
High37 °F (Sep 11, 1:56 pm)100% (Sep 10, 10:56 am)30.12 "Hg (Sep 10, 10:56 am)
Low14 °F (Sep 21, 6:56 am)40% (Sep 16, 1:56 pm)29.27 "Hg (Sep 16, 6:56 am)
Average27 °F85%29.70 "Hg
* Reported Sep 10 10:56 am — Sep 25 10:56 am, Thule Air Base. Weather by CustomWeather, © 2020

Note: Actual official high and low records may vary slightly from our data, if they occured in-between our weather recording intervals... More about our weather records

Thule Air Base Weather History for the Previous 24 Hours

Scroll right to see more
 ConditionsComfort  
Time TempWeatherWind HumidityBarometerVisibility
10:56 am
Fri, Sep 25
21 °FSunny.5 mph74%29.53 "HgN/A
9:56 am19 °FSunny.No wind80%29.56 "HgN/A
8:56 am14 °FSunny.No wind85%29.58 "HgN/A
7:56 am14 °FClear.7 mph80%29.61 "HgN/A
6:56 am17 °FClear.No wind76%29.63 "HgN/A
5:56 am18 °FClear.3 mph73%29.65 "HgN/A
4:56 am21 °FClear.No wind68%29.67 "HgN/A
3:56 am18 °FClear.8 mph78%29.69 "HgN/A
2:56 am22 °FClear.9 mph66%29.72 "HgN/A
1:56 am19 °FClear.No wind72%29.75 "HgN/A
12:56 am24 °FClear.No wind62%29.78 "HgN/A
11:56 pm
Thu, Sep 24
25 °FClear.12 mph54%29.81 "HgN/A
10:56 pm23 °FClear.6 mph68%29.84 "HgN/A
9:56 pm21 °FClear.7 mph68%29.87 "HgN/A
8:56 pm18 °FClear.7 mph76%29.89 "HgN/A
7:56 pm18 °FSunny.8 mph76%29.91 "HgN/A
6:56 pm21 °FSunny.10 mph78%29.92 "HgN/A
5:56 pm24 °FSunny.6 mph67%29.94 "HgN/A
4:56 pm27 °FSunny.No wind69%29.96 "HgN/A
3:56 pm26 °FSunny.5 mph66%29.97 "HgN/A
2:56 pm27 °FSunny.No wind64%29.98 "HgN/A
1:56 pm27 °FSunny.10 mph69%30.00 "HgN/A
12:56 pm28 °FSunny.5 mph64%30.01 "HgN/A
12:32 pm28 °FSunny.16 mph55%30.01 "HgN/A
Weather by CustomWeather, © 2020

See weather overview